| time (UTC) | temp F | wind direction | speed knots | gust knots | rain 1hr in | rain 24hr in | rain mn in | humidity % | barometer mb |
| 20260503182557 | 73 | 0 | 4.3 | 8.7 | 0.00 | 0.00 | 0.00 | 41 | 1019.7 |
| 20260503182055 | 72 | 82 | 1.7 | 9.6 | 0.00 | 0.00 | 0.00 | 42 | 1019.9 |
| 20260503181553 | 72 | 139 | 4.3 | 9.6 | 0.00 | 0.00 | 0.00 | 41 | 1020.1 |
| 20260503181056 | 72 | 95 | 2.6 | 7.0 | 0.00 | 0.00 | 0.00 | 42 | 1020.3 |
| 20260503180555 | 72 | 181 | 4.3 | 9.6 | 0.00 | 0.00 | 0.00 | 41 | 1020.4 |
| 20260503180116 | 72 | 0 | 3.5 | 9.6 | 0.00 | 0.00 | 0.00 | 42 | 1020.3 |
| 20260503175555 | 71 | 122 | 0.9 | 8.7 | 0.00 | 0.00 | 0.00 | 43 | 1020.6 |
| 20260503175054 | 71 | 0 | 0.9 | 7.0 | 0.00 | 0.00 | 0.00 | 43 | 1020.6 |
| 20260503174556 | 71 | 171 | 0.9 | 7.0 | 0.00 | 0.00 | 0.00 | 44 | 1020.7 |
| 20260503174059 | 71 | 0 | 3.5 | 7.0 | 0.00 | 0.00 | 0.00 | 43 | 1020.6 |
| 20260503173555 | 70 | 0 | 2.6 | 5.2 | 0.00 | 0.00 | 0.00 | 44 | 1020.8 |
| 20260503173112 | 70 | 0 | 0.0 | 5.2 | 0.00 | 0.00 | 0.00 | 46 | 1020.7 |
| 20260503172556 | 69 | 57 | 0.0 | 5.2 | 0.00 | 0.00 | 0.00 | 47 | 1020.7 |
| 20260503172055 | 69 | 150 | 0.0 | 3.5 | 0.00 | 0.00 | 0.00 | 48 | 1020.9 |
| 20260503171600 | 68 | 0 | 0.9 | 3.5 | 0.00 | 0.00 | 0.00 | 48 | 1020.8 |
| 20260503171055 | 68 | 0 | 0.0 | 0.0 | 0.00 | 0.00 | 0.00 | 48 | 1020.7 |
| 20260503170555 | 67 | 0 | 0.0 | 0.0 | 0.00 | 0.00 | 0.00 | 48 | 1020.8 |
| 20260503160111 | 64 | 0 | 0.0 | 0.0 | 0.00 | 0.00 | 0.00 | 58 | 1020.4 |
| 20260503150555 | 60 | 0 | 0.0 | 3.5 | 0.00 | 0.00 | 0.00 | 65 | 1020.2 |
| 20260503131055 | 54 | 0 | 0.0 | 0.0 | 0.00 | 0.00 | 0.00 | 80 | 1019.8 |
| 20260503130555 | 54 | 0 | 0.0 | 0.0 | 0.00 | 0.00 | 0.00 | 80 | 1019.8 |
| 20260503110556 | 54 | 0 | 0.0 | 0.0 | 0.00 | 0.00 | 0.00 | 80 | 1019.3 |
| 20260503081556 | 55 | 0 | 0.0 | 0.0 | 0.00 | 0.00 | 0.00 | 81 | 1020.2 |
| 20260503081058 | 55 | 0 | 0.0 | 0.0 | 0.00 | 0.00 | 0.00 | 81 | 1020.2 |
| 20260503080558 | 55 | 0 | 0.0 | 0.0 | 0.00 | 0.00 | 0.00 | 81 | 1020.3 |
| 20260503072555 | 55 | 0 | 0.0 | 0.0 | 0.00 | 0.00 | 0.00 | 79 | 1020.6 |
| 20260503072054 | 55 | 0 | 0.0 | 0.0 | 0.00 | 0.00 | 0.00 | 79 | 1020.5 |
| 20260503071558 | 55 | 0 | 0.0 | 0.0 | 0.00 | 0.00 | 0.00 | 79 | 1020.4 |
| 20260503071054 | 55 | 0 | 0.0 | 0.0 | 0.00 | 0.00 | 0.00 | 79 | 1020.5 |
| 20260503070554 | 56 | 0 | 0.0 | 0.0 | 0.00 | 0.00 | 0.00 | 78 | 1020.4 |
| 20260503060115 | 59 | 0 | 0.0 | 0.0 | 0.00 | 0.00 | 0.00 | 69 | 1020.0 |
| 20260503055055 | 59 | 0 | 0.0 | 0.0 | 0.00 | 0.00 | 0.00 | 69 | 1020.1 |
| 20260503054620 | 59 | 0 | 0.0 | 0.0 | 0.00 | 0.00 | 0.00 | 68 | 1020.1 |
| 20260503054057 | 59 | 0 | 0.0 | 0.0 | 0.00 | 0.00 | 0.00 | 68 | 1020.2 |
| 20260503053556 | 59 | 0 | 0.0 | 0.0 | 0.00 | 0.00 | 0.00 | 67 | 1020.3 |
| 20260503053055 | 60 | 0 | 0.0 | 0.0 | 0.00 | 0.00 | 0.00 | 67 | 1020.1 |
| 20260503052555 | 60 | 0 | 0.0 | 0.0 | 0.00 | 0.00 | 0.00 | 66 | 1020.0 |
| 20260503052056 | 60 | 0 | 0.0 | 0.0 | 0.00 | 0.00 | 0.00 | 65 | 1019.9 |
| 20260503051604 | 61 | 0 | 0.0 | 0.0 | 0.00 | 0.00 | 0.00 | 62 | 1019.9 |
| 20260503051056 | 62 | 0 | 0.0 | 0.0 | 0.00 | 0.00 | 0.00 | 60 | 1019.8 |
| 20260503050556 | 62 | 0 | 0.0 | 0.0 | 0.00 | 0.00 | 0.00 | 57 | 1019.9 |
| 20260503050056 | 62 | 0 | 0.0 | 0.0 | 0.00 | 0.00 | 0.00 | 59 | 1019.8 |
| 20260503045556 | 63 | 0 | 0.0 | 0.0 | 0.00 | 0.00 | 0.00 | 57 | 1019.7 |
| 20260503045055 | 63 | 0 | 0.0 | 0.0 | 0.00 | 0.00 | 0.00 | 55 | 1019.6 |
| 20260503044556 | 63 | 0 | 0.0 | 0.0 | 0.00 | 0.00 | 0.00 | 55 | 1019.5 |
| 20260503044055 | 63 | 0 | 0.0 | 0.0 | 0.00 | 0.00 | 0.00 | 55 | 1019.4 |
| 20260503043556 | 62 | 0 | 0.0 | 5.2 | 0.00 | 0.00 | 0.00 | 56 | 1019.5 |
| 20260503043101 | 63 | 0 | 0.0 | 5.2 | 0.00 | 0.00 | 0.00 | 56 | 1019.5 |
| 20260503042556 | 63 | 133 | 0.0 | 5.2 | 0.00 | 0.00 | 0.00 | 55 | 1019.4 |
| 20260503042056 | 63 | 0 | 0.0 | 0.0 | 0.00 | 0.00 | 0.00 | 55 | 1019.6 |
| 20260503041556 | 62 | 0 | 0.0 | 0.0 | 0.00 | 0.00 | 0.00 | 57 | 1019.5 |
| 20260503041052 | 62 | 0 | 0.0 | 0.0 | 0.00 | 0.00 | 0.00 | 57 | 1019.5 |
| 20260503040553 | 62 | 0 | 0.0 | 0.0 | 0.00 | 0.00 | 0.00 | 59 | 1019.5 |
| 20260503035555 | 62 | 0 | 0.0 | 0.0 | 0.00 | 0.00 | 0.00 | 59 | 1019.5 |
| 20260503035056 | 63 | 0 | 0.0 | 0.0 | 0.00 | 0.00 | 0.00 | 58 | 1019.3 |
| 20260503034559 | 63 | 0 | 0.0 | 0.0 | 0.00 | 0.00 | 0.00 | 56 | 1019.3 |
| 20260503034059 | 64 | 0 | 0.0 | 0.0 | 0.00 | 0.00 | 0.00 | 54 | 1019.2 |
| 20260503033555 | 64 | 0 | 0.0 | 0.0 | 0.00 | 0.00 | 0.00 | 55 | 1019.1 |
| 20260503033055 | 64 | 0 | 0.0 | 0.0 | 0.00 | 0.00 | 0.00 | 51 | 1019.0 |
| 20260503032555 | 64 | 0 | 0.0 | 3.5 | 0.00 | 0.00 | 0.00 | 51 | 1019.0 |
| 20260503032055 | 65 | 0 | 0.0 | 3.5 | 0.00 | 0.00 | 0.00 | 51 | 1019.0 |
| 20260503031559 | 65 | 0 | 0.0 | 3.5 | 0.00 | 0.00 | 0.00 | 49 | 1019.0 |
| 20260503031053 | 65 | 0 | 0.0 | 3.5 | 0.00 | 0.00 | 0.00 | 49 | 1019.0 |
| 20260503030554 | 65 | 0 | 0.0 | 4.3 | 0.00 | 0.00 | 0.00 | 48 | 1019.0 |
| 20260503030104 | 66 | 0 | 0.0 | 5.2 | 0.00 | 0.00 | 0.00 | 48 | 1018.8 |
| 20260503025555 | 66 | 0 | 1.7 | 5.2 | 0.00 | 0.00 | 0.00 | 48 | 1018.7 |
| 20260503025055 | 66 | 91 | 2.6 | 5.2 | 0.00 | 0.00 | 0.00 | 48 | 1018.7 |
| 20260503024557 | 66 | 91 | 2.6 | 5.2 | 0.00 | 0.00 | 0.00 | 48 | 1018.7 |
| 20260503024055 | 66 | 90 | 1.7 | 5.2 | 0.00 | 0.00 | 0.00 | 49 | 1018.7 |
| 20260503023556 | 66 | 90 | 2.6 | 5.2 | 0.00 | 0.00 | 0.00 | 49 | 1018.7 |
| 20260503023103 | 66 | 0 | 0.0 | 6.1 | 0.00 | 0.00 | 0.00 | 50 | 1018.6 |
| 20260503022555 | 66 | 74 | 0.9 | 6.1 | 0.00 | 0.00 | 0.00 | 50 | 1018.6 |
| 20260503022056 | 66 | 0 | 0.0 | 5.2 | 0.00 | 0.00 | 0.00 | 51 | 1018.6 |
| 20260503021601 | 66 | 0 | 0.0 | 5.2 | 0.00 | 0.00 | 0.00 | 49 | 1018.7 |
| 20260503021055 | 67 | 72 | 0.9 | 4.3 | 0.00 | 0.00 | 0.00 | 48 | 1018.5 |
| 20260503020555 | 67 | 0 | 0.0 | 5.2 | 0.00 | 0.00 | 0.00 | 49 | 1018.6 |
| 20260503020101 | 68 | 61 | 2.6 | 5.2 | 0.00 | 0.00 | 0.00 | 46 | 1018.4 |
| 20260503015554 | 68 | 65 | 1.7 | 7.0 | 0.00 | 0.00 | 0.00 | 46 | 1018.4 |
| 20260503015054 | 69 | 0 | 2.6 | 7.0 | 0.00 | 0.00 | 0.00 | 45 | 1018.3 |
| 20260503014600 | 69 | 57 | 0.0 | 1.7 | 0.00 | 0.00 | 0.00 | 44 | 1018.4 |
| 20260503014055 | 69 | 0 | 0.0 | 3.5 | 0.00 | 0.00 | 0.00 | 43 | 1018.5 |
| 20260503013559 | 69 | 0 | 0.0 | 3.5 | 0.00 | 0.00 | 0.00 | 43 | 1018.3 |
| 20260503013056 | 70 | 0 | 0.0 | 7.0 | 0.00 | 0.00 | 0.00 | 44 | 1018.4 |
| 20260503012555 | 70 | 0 | 0.9 | 7.0 | 0.00 | 0.00 | 0.00 | 41 | 1018.4 |
| 20260503012054 | 70 | 58 | 2.6 | 6.1 | 0.00 | 0.00 | 0.00 | 41 | 1018.3 |
| 20260503011559 | 70 | 0 | 0.0 | 6.1 | 0.00 | 0.00 | 0.00 | 41 | 1018.3 |
| 20260503011059 | 71 | 0 | 2.6 | 6.1 | 0.00 | 0.00 | 0.00 | 39 | 1018.3 |
| 20260503010556 | 72 | 54 | 2.6 | 6.1 | 0.00 | 0.00 | 0.00 | 36 | 1018.3 |
| 20260503005555 | 73 | 0 | 2.6 | 6.1 | 0.00 | 0.00 | 0.00 | 32 | 1018.2 |
| 20260503005055 | 74 | 73 | 0.0 | 4.3 | 0.00 | 0.00 | 0.00 | 35 | 1018.1 |
| 20260503004607 | 74 | 0 | 0.0 | 4.3 | 0.00 | 0.00 | 0.00 | 34 | 1018.1 |
| 20260503004055 | 74 | 0 | 0.9 | 7.8 | 0.00 | 0.00 | 0.00 | 31 | 1018.1 |
| 20260503003555 | 74 | 103 | 1.7 | 7.8 | 0.00 | 0.00 | 0.00 | 30 | 1018.0 |
| 20260503003106 | 74 | 135 | 0.0 | 7.8 | 0.00 | 0.00 | 0.00 | 31 | 1018.0 |
| 20260503002555 | 74 | 143 | 1.7 | 7.0 | 0.00 | 0.00 | 0.00 | 30 | 1018.0 |
| 20260503002055 | 75 | 0 | 1.7 | 7.0 | 0.00 | 0.00 | 0.00 | 29 | 1018.0 |
| 20260503001617 | 75 | 0 | 2.6 | 5.2 | 0.00 | 0.00 | 0.00 | 28 | 1018.1 |
| 20260503001055 | 75 | 0 | 0.0 | 7.0 | 0.00 | 0.00 | 0.00 | 30 | 1018.0 |
| 20260503000554 | 75 | 0 | 0.0 | 7.0 | 0.00 | 0.00 | 0.00 | 31 | 1018.0 |
| 20260503000053 | 75 | 0 | 0.9 | 7.8 | 0.00 | 0.00 | 0.00 | 30 | 1018.0 |
| 20260502235555 | 75 | 146 | 1.7 | 8.7 | 0.00 | 0.00 | 0.00 | 30 | 1018.0 |
| 20260502235055 | 75 | 136 | 5.2 | 8.7 | 0.00 | 0.00 | 0.00 | 29 | 1018.1 |
| 20260502234555 | 75 | 98 | 4.3 | 8.7 | 0.00 | 0.00 | 0.00 | 29 | 1018.2 |
| 20260502234056 | 76 | 0 | 0.9 | 6.1 | 0.00 | 0.00 | 0.00 | 28 | 1018.1 |
| 20260502233556 | 75 | 119 | 0.0 | 5.2 | 0.00 | 0.00 | 0.00 | 28 | 1018.2 |
| 20260502233055 | 75 | 0 | 0.0 | 6.1 | 0.00 | 0.00 | 0.00 | 30 | 1018.2 |
| 20260502232557 | 75 | 0 | 0.0 | 6.1 | 0.00 | 0.00 | 0.00 | 28 | 1018.1 |
| 20260502232055 | 75 | 120 | 1.7 | 6.1 | 0.00 | 0.00 | 0.00 | 29 | 1018.2 |
| 20260502231556 | 75 | 0 | 0.0 | 8.7 | 0.00 | 0.00 | 0.00 | 29 | 1018.0 |
| 20260502231055 | 75 | 0 | 0.9 | 9.6 | 0.00 | 0.00 | 0.00 | 30 | 1018.2 |
| 20260502230557 | 75 | 179 | 4.3 | 9.6 | 0.00 | 0.00 | 0.00 | 31 | 1018.2 |
| 20260502230058 | 75 | 174 | 5.2 | 9.6 | 0.00 | 0.00 | 0.00 | 30 | 1018.2 |
| 20260502225554 | 75 | 172 | 5.2 | 9.6 | 0.00 | 0.00 | 0.00 | 30 | 1018.2 |
| 20260502225055 | 75 | 151 | 1.7 | 6.1 | 0.00 | 0.00 | 0.00 | 30 | 1018.2 |
| 20260502224555 | 75 | 0 | 2.6 | 6.1 | 0.00 | 0.00 | 0.00 | 29 | 1018.3 |
| 20260502224056 | 75 | 41 | 1.7 | 5.2 | 0.00 | 0.00 | 0.00 | 31 | 1018.2 |
| 20260502223556 | 74 | 360 | 0.9 | 5.2 | 0.00 | 0.00 | 0.00 | 29 | 1018.2 |
| 20260502223100 | 74 | 0 | 0.9 | 5.2 | 0.00 | 0.00 | 0.00 | 29 | 1018.3 |
| 20260502222556 | 75 | 0 | 0.0 | 4.3 | 0.00 | 0.00 | 0.00 | 30 | 1018.4 |
| 20260502222055 | 74 | 0 | 0.0 | 6.1 | 0.00 | 0.00 | 0.00 | 29 | 1018.6 |
| 20260502221605 | 74 | 0 | 2.6 | 6.1 | 0.00 | 0.00 | 0.00 | 29 | 1018.7 |
| 20260502221055 | 74 | 0 | 0.9 | 6.1 | 0.00 | 0.00 | 0.00 | 30 | 1018.7 |
| 20260502220555 | 75 | 65 | 2.6 | 7.8 | 0.00 | 0.00 | 0.00 | 30 | 1018.8 |
| 20260502220057 | 74 | 0 | 1.7 | 7.8 | 0.00 | 0.00 | 0.00 | 31 | 1018.8 |
| 20260502215555 | 74 | 0 | 1.7 | 6.1 | 0.00 | 0.00 | 0.00 | 35 | 1018.9 |
| 20260502215055 | 73 | 0 | 0.0 | 3.5 | 0.00 | 0.00 | 0.00 | 30 | 1019.0 |
| 20260502214555 | 73 | 0 | 0.0 | 3.5 | 0.00 | 0.00 | 0.00 | 30 | 1019.2 |
| 20260502214056 | 73 | 0 | 0.0 | 0.9 | 0.00 | 0.00 | 0.00 | 31 | 1019.3 |
| 20260502213555 | 72 | 0 | 0.0 | 5.2 | 0.00 | 0.00 | 0.00 | 31 | 1019.4 |
| 20260502213105 | 72 | 0 | 0.9 | 5.2 | 0.00 | 0.00 | 0.00 | 32 | 1019.3 |
| 20260502212556 | 73 | 0 | 0.0 | 3.5 | 0.00 | 0.00 | 0.00 | 32 | 1019.3 |
| 20260502212056 | 72 | 0 | 0.0 | 5.2 | 0.00 | 0.00 | 0.00 | 33 | 1019.4 |
| 20260502211557 | 73 | 44 | 1.7 | 5.2 | 0.00 | 0.00 | 0.00 | 34 | 1019.4 |
| 20260502211055 | 73 | 43 | 1.7 | 5.2 | 0.00 | 0.00 | 0.00 | 34 | 1019.5 |
| 20260502210554 | 73 | 0 | 0.0 | 5.2 | 0.00 | 0.00 | 0.00 | 32 | 1019.6 |
| 20260502210057 | 73 | 0 | 0.0 | 5.2 | 0.00 | 0.00 | 0.00 | 33 | 1019.7 |
| 20260502205555 | 73 | 52 | 0.9 | 5.2 | 0.00 | 0.00 | 0.00 | 34 | 1019.6 |
| 20260502205055 | 72 | 0 | 0.0 | 7.0 | 0.00 | 0.00 | 0.00 | 35 | 1019.8 |
| 20260502204602 | 72 | 0 | 0.9 | 7.0 | 0.00 | 0.00 | 0.00 | 35 | 1019.9 |
| 20260502204054 | 72 | 0 | 0.0 | 7.0 | 0.00 | 0.00 | 0.00 | 34 | 1019.9 |
| 20260502203556 | 73 | 110 | 1.7 | 7.8 | 0.00 | 0.00 | 0.00 | 35 | 1019.9 |
| 20260502203103 | 73 | 53 | 1.7 | 7.8 | 0.00 | 0.00 | 0.00 | 32 | 1019.9 |
| 20260502202556 | 73 | 77 | 3.5 | 8.7 | 0.00 | 0.00 | 0.00 | 34 | 1019.9 |
| 20260502202056 | 74 | 16 | 3.5 | 8.7 | 0.00 | 0.00 | 0.00 | 33 | 1020.0 |
| 20260502201556 | 74 | 0 | 2.6 | 8.7 | 0.00 | 0.00 | 0.00 | 35 | 1020.1 |
| 20260502201057 | 73 | 65 | 1.7 | 8.7 | 0.00 | 0.00 | 0.00 | 37 | 1020.1 |
| 20260502200556 | 73 | 83 | 0.9 | 10.4 | 0.00 | 0.00 | 0.00 | 37 | 1020.0 |
| 20260502200133 | 73 | 86 | 4.3 | 11.3 | 0.00 | 0.00 | 0.00 | 37 | 1020.1 |
| 20260502195553 | 73 | 145 | 6.1 | 11.3 | 0.00 | 0.00 | 0.00 | 37 | 1020.2 |
| 20260502195055 | 73 | 117 | 0.9 | 11.3 | 0.00 | 0.00 | 0.00 | 38 | 1020.2 |
| 20260502194607 | 72 | 88 | 7.0 | 11.3 | 0.00 | 0.00 | 0.00 | 39 | 1020.2 |
| 20260502194053 | 71 | 98 | 1.7 | 7.0 | 0.00 | 0.00 | 0.00 | 42 | 1020.3 |
| 20260502193554 | 71 | 157 | 0.0 | 6.1 | 0.00 | 0.00 | 0.00 | 41 | 1020.6 |
| 20260502193057 | 72 | 0 | 1.7 | 7.8 | 0.00 | 0.00 | 0.00 | 42 | 1020.6 |
| 20260502192556 | 72 | 56 | 2.6 | 9.6 | 0.00 | 0.00 | 0.00 | 41 | 1020.6 |
| 20260502192055 | 72 | 83 | 5.2 | 9.6 | 0.00 | 0.00 | 0.00 | 40 | 1020.7 |
| 20260502191605 | 72 | 0 | 1.7 | 10.4 | 0.00 | 0.00 | 0.00 | 39 | 1020.9 |
| 20260502191056 | 71 | 120 | 5.2 | 10.4 | 0.00 | 0.00 | 0.00 | 40 | 1020.9 |
| 20260502190555 | 71 | 93 | 4.3 | 9.6 | 0.00 | 0.00 | 0.00 | 41 | 1021.0 |
| 20260502190054 | 71 | 14 | 4.3 | 9.6 | 0.00 | 0.00 | 0.00 | 42 | 1021.0 |
| 20260502185556 | 71 | 88 | 2.6 | 7.8 | 0.00 | 0.00 | 0.00 | 42 | 1021.1 |
| 20260502185056 | 71 | 51 | 4.3 | 7.8 | 0.00 | 0.00 | 0.00 | 41 | 1021.1 |
| 20260502184554 | 71 | 96 | 4.3 | 10.4 | 0.00 | 0.00 | 0.00 | 40 | 1021.2 |
| 20260502184056 | 71 | 104 | 5.2 | 10.4 | 0.00 | 0.00 | 0.00 | 42 | 1021.4 |
| 20260502183554 | 70 | 0 | 0.0 | 5.2 | 0.00 | 0.00 | 0.00 | 42 | 1021.5 |
| 20260502183059 | 70 | 0 | 0.9 | 5.2 | 0.00 | 0.00 | 0.00 | 42 | 1021.5 |